When you browse on this site, cookies collect data to enhance your experience and personalize the content and advertising you see.
Visit our Privacy Policy to learn more. By continuing to use the site, you agree to this use of cookies and data.
  • En España
  • Lista de países
  • Para 7 días
  • Temperatura del agua
  • El tiempo en el mapa
  • Informadores
  • user-avatar
    Iniciar sesión

    Tiempo cada hora Hajfong

    Hoy, 31 Mayo, Domingo

    Tiempo Temperatura Precipitaciones Viento Presión Humedad
    00:00 +30°C° 0 mm 2 mps 755 mmHg 83%
    01:00 +30°C° 0 mm 3 mps 755 mmHg 83%
    02:00 +30°C° 0.9 mm 3 mps 755 mmHg 84%
    03:00 +30°C° 0.9 mm 4 mps 754 mmHg 85%
    04:00 +30°C° 0.9 mm 5 mps 754 mmHg 85%
    05:00 +30°C° 0.8 mm 5 mps 754 mmHg 84%
    06:00 +32°C° 0.8 mm 4 mps 755 mmHg 82%
    07:00 +32°C° 0.8 mm 4 mps 755 mmHg 81%
    08:00 +33°C° 0.2 mm 4 mps 755 mmHg 77%
    09:00 +34°C° 0.2 mm 4 mps 755 mmHg 72%
    10:00 +35°C° 0.2 mm 4 mps 756 mmHg 68%
    11:00 +36°C° 0 mm 4 mps 755 mmHg 63%
    12:00 +36°C° 0 mm 4 mps 754 mmHg 58%
    13:00 +37°C° 0 mm 5 mps 753 mmHg 52%
    14:00 +37°C° 0 mm 5 mps 753 mmHg 57%
    15:00 +36°C° 0 mm 5 mps 752 mmHg 62%
    16:00 +35°C° 0 mm 6 mps 751 mmHg 66%
    17:00 +34°C° 0 mm 5 mps 752 mmHg 71%
    18:00 +33°C° 0 mm 5 mps 752 mmHg 76%
    19:00 +32°C° 0 mm 4 mps 752 mmHg 81%
    20:00 +32°C° 0 mm 4 mps 753 mmHg 82%
    21:00 +32°C° 0 mm 4 mps 753 mmHg 82%
    22:00 +32°C° 0 mm 4 mps 754 mmHg 83%
    23:00 +32°C° 0.8 mm 4 mps 754 mmHg 84%

    Mañana, 1 Junio, Lunes

    Tiempo Temperatura Precipitaciones Viento Presión Humedad
    00:00 +32°C° 0.8 mm 5 mps 753 mmHg 84%
    01:00 +32°C° 0.8 mm 5 mps 753 mmHg 85%
    02:00 +32°C° 2.1 mm 5 mps 753 mmHg 85%
    03:00 +30°C° 2.1 mm 5 mps 753 mmHg 85%
    04:00 +30°C° 2.1 mm 4 mps 753 mmHg 85%
    05:00 +32°C° 0.6 mm 4 mps 753 mmHg 84%
    06:00 +31°C° 0.6 mm 3 mps 753 mmHg 82%
    07:00 +31°C° 0.6 mm 3 mps 754 mmHg 81%
    08:00 +33°C° 0 mm 3 mps 754 mmHg 78%
    09:00 +33°C° 0 mm 3 mps 754 mmHg 74%
    10:00 +34°C° 0 mm 3 mps 754 mmHg 71%
    11:00 +35°C° 0 mm 3 mps 753 mmHg 67%
    12:00 +36°C° 0 mm 4 mps 753 mmHg 63%
    13:00 +37°C° 0 mm 4 mps 752 mmHg 58%
    14:00 +37°C° 0 mm 5 mps 752 mmHg 60%
    15:00 +36°C° 0 mm 5 mps 751 mmHg 62%
    16:00 +36°C° 0 mm 6 mps 750 mmHg 64%
    17:00 +35°C° 0 mm 5 mps 751 mmHg 69%
    18:00 +34°C° 0 mm 5 mps 751 mmHg 73%
    19:00 +32°C° 0 mm 4 mps 752 mmHg 78%
    20:00 +32°C° 0.1 mm 4 mps 752 mmHg 79%
    21:00 +32°C° 0.1 mm 4 mps 753 mmHg 80%
    22:00 +32°C° 0.1 mm 4 mps 753 mmHg 81%
    23:00 +32°C° 0 mm 4 mps 753 mmHg 80%

    Pasado mañana, 2 Junio, Martes

    Tiempo Temperatura Precipitaciones Viento Presión Humedad
    00:00 +32°C° 0 mm 4 mps 752 mmHg 80%
    01:00 +32°C° 0 mm 5 mps 752 mmHg 80%
    02:00 +30°C° 0 mm 4 mps 752 mmHg 80%
    03:00 +30°C° 0 mm 4 mps 752 mmHg 81%
    04:00 +30°C° 0 mm 4 mps 752 mmHg 81%
    05:00 +32°C° 0.1 mm 4 mps 752 mmHg 79%
    06:00 +32°C° 0.1 mm 4 mps 752 mmHg 77%
    07:00 +33°C° 0.1 mm 5 mps 753 mmHg 75%
    08:00 +34°C° 0.1 mm 5 mps 753 mmHg 70%
    09:00 +35°C° 0.1 mm 5 mps 753 mmHg 64%
    10:00 +36°C° 0.1 mm 6 mps 753 mmHg 59%
    11:00 +36°C° 0 mm 6 mps 753 mmHg 58%
    12:00 +37°C° 0 mm 5 mps 752 mmHg 57%
    13:00 +37°C° 0 mm 5 mps 751 mmHg 55%
    14:00 +36°C° 0 mm 5 mps 751 mmHg 58%
    15:00 +36°C° 0 mm 5 mps 750 mmHg 61%
    16:00 +35°C° 0 mm 6 mps 749 mmHg 64%
    17:00 +34°C° 0 mm 5 mps 750 mmHg 69%
    18:00 +33°C° 0 mm 5 mps 750 mmHg 74%
    19:00 +32°C° 0 mm 5 mps 750 mmHg 79%
    20:00 +32°C° 0 mm 5 mps 751 mmHg 80%
    21:00 +32°C° 0 mm 5 mps 751 mmHg 80%
    22:00 +32°C° 0 mm 4 mps 752 mmHg 80%
    23:00 +32°C° 0 mm 5 mps 751 mmHg 80%

    3 Junio, Miércoles

    Tiempo Temperatura Precipitaciones Viento Presión Humedad
    00:00 +32°C° 0 mm 5 mps 751 mmHg 79%
    01:00 +32°C° 0 mm 5 mps 751 mmHg 78%
    02:00 +32°C° 0 mm 5 mps 751 mmHg 79%
    03:00 +30°C° 0 mm 5 mps 751 mmHg 79%
    04:00 +30°C° 0 mm 5 mps 750 mmHg 80%
    05:00 +32°C° 0 mm 5 mps 751 mmHg 78%
    06:00 +32°C° 0 mm 5 mps 751 mmHg 75%
    07:00 +33°C° 0 mm 6 mps 752 mmHg 73%
    08:00 +34°C° 0 mm 6 mps 752 mmHg 69%
    09:00 +35°C° 0 mm 5 mps 752 mmHg 65%
    10:00 +36°C° 0 mm 5 mps 752 mmHg 61%
    11:00 +36°C° 0 mm 5 mps 751 mmHg 60%
    12:00 +37°C° 0 mm 5 mps 751 mmHg 58%
    13:00 +37°C° 0 mm 5 mps 750 mmHg 57%
    14:00 +36°C° 0 mm 5 mps 750 mmHg 59%
    15:00 +36°C° 0 mm 5 mps 749 mmHg 61%
    16:00 +35°C° 0 mm 5 mps 749 mmHg 63%
    17:00 +34°C° 0 mm 5 mps 749 mmHg 68%
    18:00 +33°C° 0 mm 5 mps 749 mmHg 73%
    19:00 +32°C° 0 mm 4 mps 749 mmHg 78%
    20:00 +32°C° 0 mm 5 mps 750 mmHg 79%
    21:00 +32°C° 0 mm 5 mps 750 mmHg 80%
    22:00 +32°C° 0 mm 5 mps 751 mmHg 81%
    23:00 +32°C° 0.1 mm 6 mps 751 mmHg 80%

    4 Junio, Jueves

    Tiempo Temperatura Precipitaciones Viento Presión Humedad
    00:00 +32°C° 0.1 mm 6 mps 750 mmHg 79%
    01:00 +32°C° 0.1 mm 6 mps 750 mmHg 78%
    02:00 +32°C° 0 mm 6 mps 750 mmHg 79%
    03:00 +32°C° 0 mm 5 mps 750 mmHg 80%
    04:00 +32°C° 0 mm 5 mps 750 mmHg 81%
    05:00 +32°C° 0 mm 4 mps 750 mmHg 79%
    06:00 +33°C° 0 mm 4 mps 751 mmHg 77%
    07:00 +33°C° 0 mm 4 mps 751 mmHg 75%
    08:00 +34°C° 0 mm 4 mps 751 mmHg 71%
    09:00 +35°C° 0 mm 4 mps 751 mmHg 68%
    10:00 +35°C° 0 mm 4 mps 752 mmHg 64%
    11:00 +36°C° 0 mm 4 mps 751 mmHg 61%
    12:00 +37°C° 0 mm 4 mps 750 mmHg 59%
    13:00 +38°C° 0 mm 4 mps 750 mmHg 56%
    14:00 +37°C° 0 mm 5 mps 749 mmHg 59%
    15:00 +36°C° 0 mm 5 mps 749 mmHg 63%
    16:00 +35°C° 0 mm 6 mps 748 mmHg 67%
    17:00 +34°C° 0 mm 5 mps 748 mmHg 71%
    18:00 +34°C° 0 mm 4 mps 749 mmHg 75%
    19:00 +33°C° 0 mm 4 mps 749 mmHg 78%
    20:00 +33°C° 0.1 mm 4 mps 749 mmHg 79%
    21:00 +33°C° 0.1 mm 4 mps 750 mmHg 80%
    22:00 +33°C° 0.1 mm 5 mps 751 mmHg 80%
    23:00 +33°C° 0.6 mm 5 mps 750 mmHg 79%

    5 Junio, Viernes

    Tiempo Temperatura Precipitaciones Viento Presión Humedad
    00:00 +32°C° 0.6 mm 5 mps 750 mmHg 78%
    01:00 +32°C° 0.6 mm 5 mps 750 mmHg 77%
    02:00 +32°C° 0 mm 5 mps 750 mmHg 78%
    03:00 +32°C° 0 mm 4 mps 750 mmHg 78%
    04:00 +32°C° 0 mm 4 mps 749 mmHg 79%
    05:00 +32°C° 0 mm 4 mps 750 mmHg 78%
    06:00 +31°C° 0 mm 3 mps 750 mmHg 77%
    07:00 +33°C° 0 mm 3 mps 750 mmHg 76%
    08:00 +34°C° 0 mm 4 mps 750 mmHg 70%
    09:00 +36°C° 0 mm 4 mps 751 mmHg 63%
    10:00 +37°C° 0 mm 4 mps 751 mmHg 57%
    11:00 +38°C° 0 mm 4 mps 750 mmHg 56%
    12:00 +39°C° 0 mm 5 mps 750 mmHg 54%
    13:00 +39°C° 0 mm 5 mps 749 mmHg 52%
    14:00 +39°C° 0 mm 5 mps 749 mmHg 55%
    15:00 +37°C° 0 mm 5 mps 748 mmHg 58%
    16:00 +36°C° 0 mm 5 mps 748 mmHg 61%
    17:00 +35°C° 0 mm 5 mps 748 mmHg 66%
    18:00 +34°C° 0 mm 5 mps 748 mmHg 71%
    19:00 +33°C° 0 mm 4 mps 748 mmHg 75%
    20:00 +33°C° 0.1 mm 4 mps 749 mmHg 77%
    21:00 +33°C° 0.1 mm 4 mps 750 mmHg 79%
    22:00 +33°C° 0.1 mm 3 mps 750 mmHg 80%
    23:00 +33°C° 1.4 mm 4 mps 750 mmHg 79%
    Mostrar más